Regional Weather Roundup
Issued by NWS

Home | Current Version | Previous Version | Graphics & Text | Print | Product List | Glossary On
Versions: 1 2 3 4 5 6 7 8 9 10 11 12 13 14 15 16 17 18 19 20 21 22 23 24 25 26 27 28 29 30 31 32 33 34 35 36 37 38 39 40 41 42 43 44 45 46 47 48 49 50
000
ASUS44 KMEG 261400
RWRTN
TENNESSEE HOURLY STATE WEATHER ROUNDUP
NATIONAL WEATHER SERVICE MEMPHIS TN
900 AM CDT THU MAY 26 2016

TNZ002-004-019-021-049-052-054-088>092-261500-
WEST TENNESSEE

CITY           SKY/WX    TMP DP  RH WIND       PRES   REMARKS
MEMPHIS INTL   PTSUNNY   79  71  76 S13G21    30.07R
NWS MEMPHIS      N/A     80 N/A N/A MISG        N/A
JACKSON        SUNNY     77  70  79 S13       30.08R
DYERSBURG      PTSUNNY   75  70  83 SW9       30.05S
UNION CITY     SUNNY     77  72  83 S8        30.05R
PARIS          PTSUNNY   73  68  83 SW13      30.08R
LEXINGTON      MOSUNNY   77  70  78 S8        30.09S
$$

TNZ008-025-027-028-033-062-065-066-261500-
NORTH MIDDLE TENNESSEE

CITY           SKY/WX    TMP DP  RH WIND       PRES   REMARKS
NASHVILLE      PTSUNNY   76  64  66 S8        30.12S
CLARKSVILLE    MOSUNNY   73  68  84 SW8       30.08S
COOKEVILLE     CLOUDY    73  66  78 S7        30.16S
CROSSVILLE     CLOUDY    70  64  81 CALM      30.22S
$$

TNZ061-075-076-078-094-096-097-261500-
SOUTH MIDDLE TENNESSEE

CITY           SKY/WX    TMP DP  RH WIND       PRES   REMARKS
TULLAHOMA      SUNNY     75  64  69 SW7       30.17F
WINCHESTER     SUNNY     81  63  54 S8        30.18R
MCMINNVILLE    PTSUNNY   77  64  65 S8        30.17S
COLUMBIA       MOSUNNY   79  72  78 S10       30.11S
SHELBYVILLE    SUNNY     81  64  57 S12       30.15F
$$

TNZ017-018-042-046-047-261500-
NORTHEAST TENNESSEE

CITY           SKY/WX    TMP DP  RH WIND       PRES   REMARKS
TRI CITIES     PTSUNNY   73  62  68 W6        30.22R
$$

TNZ012-013-036-069-073-074-261500-
CENTRAL EAST TENNESSEE

CITY           SKY/WX    TMP DP  RH WIND       PRES   REMARKS
KNOXVILLE      LGT RAIN  67  64  90 SE5       30.21F
OAK RIDGE      LGT RAIN  68  64  87 CALM      30.22S
GATLINBURG     PTSUNNY   68  63  83 CALM      30.21F
$$

TNZ083-085-099-261500-
SOUTHEAST TENNESSEE

CITY           SKY/WX    TMP DP  RH WIND       PRES   REMARKS
CHATTANOOGA    MOSUNNY   77  63  61 SW3       30.18S
$$

SKY/WX REPORTED AS FAIR MEANS FEW OR NO CLOUDS BELOW
12 THOUSAND FEET.




USA.gov is the U.S. government's official web portal to all federal, state and local government web resources and services.